Location: Briis
(48.6240°N, 2.1211°E)
Time: 07:17:09
(UTC+00:00)

FALCON 9 DEB - Pass Details

Date: 25 September 2020
Orbit: 426 x 441 km, 53.0° (Epoch: 19 October)

Event Time Altitude Azimuth Distance (km) Brightness Sun altitude
Exits shadow 04:53:13 12° 275° (W) 1,400 5.1 -9.0°
Maximum altitude 04:56:12 45° 348° (NNW) 597 3.8 -8.5°
Drops below altitude 10° 04:59:32 10° 63° (ENE) 1,537 7.3 -8.0°
Sets 05:01:42 0° 70° (ENE) 2,408 8.8 -7.6°
